Regional Weather Roundup
Issued by NWS

Home | Current Version | Previous Version | Graphics & Text | Print | Product List | Glossary On
Versions: 1 2 3 4 5 6 7 8 9 10 11 12 13 14 15 16 17 18 19 20 21 22 23 24 25 26 27
000
ASUS45 KBOU 081607
RWRCO

WEATHER ROUNDUP FOR COLORADO
NATIONAL WEATHER SERVICE DENVER/BOULDER CO
900 AM MST THU DEC 08 2016

NOTE: "FAIR" INDICATES FEW OR NO CLOUDS BELOW 12000 FEET WITH NO
SIGNIFICANT WEATHER AND/OR OBSTRUCTIONS TO VISIBILITY.

COZ001>005-013-030-031-081700-
...NORTHWEST COLORADO...

CITY           SKY/WX    TMP DP  RH WIND       PRES   REMARKS
CRAIG            N/A      2  -4  76 CALM      30.32S
HAYDEN         PTSUNNY    1  -9  60 E13       30.29S WCI -16
MEEKER         CLOUDY     4  -1  80 CALM      30.30S
MOUNT WERNER   NOT AVBL
STEAMBOAT SPGS FAIR      -7 -11  80 CALM      30.30R
WALDEN           N/A    -17 -24  70 CALM      30.23S
$$

COZ006>008-011-081700-
...WEST CENTRAL VALLEYS...

CITY           SKY/WX    TMP DP  RH WIND       PRES   REMARKS
GRAND JUNCTION CLOUDY    22   7  52 SE8       30.36S WCI  12
MONTROSE       CLOUDY    18   8  65 SE3       30.37R
EAGLE          CLOUDY     3  -6  66 CALM      30.41R
RIFLE          CLOUDY    13   4  67 CALM      30.38R
DELTA          NOT AVBL
NUCLA          CLOUDY    16   1  53 SE3       30.37R
$$

COZ017>023-064>068-081700-
...SOUTHWEST COLORADO...

CITY           SKY/WX    TMP DP  RH WIND       PRES   REMARKS
DURANGO        PTSUNNY   19   3  49 CALM      30.31R
CORTEZ         CLOUDY    21   9  59 SE3       30.32R
PAGOSA SPRINGS CLOUDY    14   1  56 NE3       30.30S
TELLURIDE      CLOUDY    19  -7  32 SE3       30.24R
WOLF CREEK PAS FAIR       5 -18  33 SW14G23   30.20R WCI -12
$$

COZ009-010-012-014-032>034-037-058>063-081700-
...CENTRAL COLORADO...

CITY           SKY/WX    TMP DP  RH WIND       PRES   REMARKS
ASPEN          CLOUDY     5  -1  76 NW5       30.25R WCI  -4
BUENA VISTA    FAIR       8  -4  58 CALM      30.24S
COPPER MTN     CLOUDY     5 -22  27 MISG      30.07R
BERTHOUD PASS  CLOUDY    -2 -13  60 MISG      30.00R
COTTONWOOD PAS FAIR      12   0  57 SE5       30.13R WCI   4
GUNNISON       FLURRIES   4  -5  66 CALM      30.35R
KREMMLING      CLOUDY   N/A N/A N/A CALM      30.35S
LEADVILLE      PTSUNNY    1  -7  68 CALM      30.12R
MONARCH PASS   CLOUDY     3 -20  33 W32G39    30.20R WCI -22
SALIDA         FAIR       8  -1  66 N3        30.35S
SUNLIGHT       CLOUDY     3   0  85 SW14G20   30.18R WCI -15
WILKERSON PASS FAIR       3  -8  60 SW13G18   30.08S WCI -14
$$

COZ069>075-081700-
...SAN LUIS VALLEY/SANGRE DE CRISTO MOUNTAINS...

CITY           SKY/WX    TMP DP  RH WIND       PRES   REMARKS
ALAMOSA        CLOUDY     5  -2  72 CALM      30.30R
LA VETA PASS   LGT SNOW   9   3  78 NE22G29   30.12S WCI -11
SAGUACHE       FAIR      12  -4  48 NW16      30.28S WCI  -4
$$

COZ035-036-038>040-081700-
...NORTHERN COLORADO FRONT RANGE...

CITY           SKY/WX    TMP DP  RH WIND       PRES   REMARKS
DENVER INTL AP PTSUNNY    5   3  91 CALM      30.41R
DMNS CITY PARK   N/A     12   3  67 SE5       30.41F WCI   4
AURORA         PTSUNNY    3   0  87 SW3       30.39R
FRONT RANGE AP NOT AVBL
ERIE MUNI ARPT FAIR       3   0  85 CALM      30.44R FOG
BOULDER MUN AP FAIR       5   1  85 NE3       30.41S
CENTENNIAL     PTSUNNY    5   3  91 CALM      30.36R
BROOMFIELD     PTSUNNY    7   3  85 CALM      30.39R
FORT COLLINS   FAIR       0   0 100 CALM      30.45R
LONGMONT       FAIR       6  -2  70 CALM      30.46S
$$

COZ041-046-047-076>085-087-088-081700-
...PIKES PEAK/PALMER DIVIDE AND SOUTHERN FOOTHILLS...

CITY           SKY/WX    TMP DP  RH WIND       PRES   REMARKS
COLO. SPRINGS  LGT SNOW   9   5  84 SE10      30.38R VSB 3/4 WCI  -5
A. F. ACADEMY  CLOUDY     9   3  77 S10       30.33R WCI  -6
SCHRIEVER AFB  NOT AVBL
ELLICOTT       LGT SNOW N/A N/A N/A SW10        N/A
FALCON         LGT SNOW   7   3  82 S7        30.33R WCI  -4
FORT CARSON    LGT SNOW  10   6  82 S13       30.38R WCI  -5
LIMON          FAIR       5   3  91 CALM      30.44R
MONUMENT HILL  FAIR       7   3  85 SW12      30.29R WCI  -9
TRINIDAD       FAIR      13   7  77 NE3       30.40R HAZE
$$

COZ042>045-048>051-090-091-081700-
...NORTHEAST COLORADO...

CITY           SKY/WX    TMP DP  RH WIND       PRES   REMARKS
GREELEY ARPT   FAIR      -6 -11  79 CALM      30.50R
AKRON          FAIR       1  -4  79 W7        30.48R WCI -12
BURLINGTON     FAIR       9  -3  58 N7        30.53R WCI  -2
WRAY           FAIR       3  -4  72 W5        30.59R WCI  -6
STERLING       FAIR      -6  -9  84 SW5       30.55R WCI -17
HOLYOKE        FAIR       7  -4  61 NW7       30.57R WCI  -5
FORT MORGAN    FAIR      -8 -13  76 W3        30.50S
$$

COZ086-089-092>099-081700-
...SOUTHEAST COLORADO...

CITY           SKY/WX    TMP DP  RH WIND       PRES   REMARKS
PUEBLO         CLOUDY    16   9  74 SE9       30.48R WCI   4
LA JUNTA       FAIR      14   7  73 E5        30.55R WCI   6
LAMAR          FAIR      11   4  73 CALM      30.58R
SPRINGFIELD      N/A     13   1  59 CALM      30.53R
$$




USA.gov is the U.S. government's official web portal to all federal, state and local government web resources and services.